Wind_Speed
5 5 4 3 2 1 0 2 4 6 8 9 9 10 11 11 10 9 8 9 8 8 8 8 7 7 7 7 7 8 8 8 9 9 9 9 9 9 8 8 7 6 5 4 3 2 1 1 1
6 6 5 4 3 2 1 1 4 6 8 9 9 10 10 10 10 9 9 9 8 8 8 8 8 8 7 7 7 7 8 8 8 8 8 9 9 8 8 7 7 5 4 4 3 2 1 1 2
7 7 6 5 5 4 3 2 4 6 7 9 10 10 9 10 10 10 9 9 8 8 7 8 8 8 7 7 7 8 8 8 8 8 8 8 8 8 8 6 6 5 4 4 3 2 0 1 1
8 7 6 6 6 5 3 3 3 5 6 8 9 11 11 10 10 9 9 8 8 7 7 7 8 8 7 7 7 8 8 8 8 8 8 7 7 8 7 7 6 4 4 4 3 2 1 1 1
9 8 7 7 7 6 4 4 4 5 6 8 8 10 11 10 10 9 9 8 8 7 7 7 7 7 7 7 8 8 8 8 8 8 8 8 7 7 7 6 6 4 4 3 3 2 1 0 1
10 9 7 7 7 6 5 5 4 5 6 7 8 9 10 10 10 9 8 8 8 8 8 7 7 7 7 8 8 8 8 8 8 8 8 8 7 7 6 6 5 4 3 3 2 1 0 0 1
11 9 8 8 8 7 6 5 5 5 6 7 8 9 9 10 10 10 9 8 8 8 8 7 7 7 7 8 8 8 8 8 8 9 8 8 8 7 7 6 5 4 3 3 2 1 1 1 2
11 10 10 9 9 8 7 7 6 7 7 7 8 9 10 10 11 11 10 9 8 8 8 8 7 7 7 8 8 9 9 8 8 8 8 8 8 7 7 6 5 4 4 3 3 2 1 1 2
11 11 10 10 9 9 8 7 7 8 7 7 8 9 10 11 11 11 11 10 9 8 8 8 8 7 7 8 8 8 9 8 8 8 7 7 7 7 7 6 6 5 4 4 3 3 3 2 2
12 11 11 11 10 10 10 9 8 8 8 8 9 10 10 11 12 12 11 9 9 9 9 9 9 8 8 8 8 8 9 8 8 8 8 8 7 7 6 6 6 5 5 5 5 5 4 4 3
13 13 13 12 12 12 12 10 10 9 8 8 10 11 11 11 11 12 10 9 10 9 9 9 9 9 9 9 9 9 9 9 9 9 9 9 8 7 7 6 6 6 6 6 6 6 6 6 5
14 14 15 14 14 14 13 12 12 11 10 10 10 11 12 12 11 11 11 10 11 11 10 10 10 10 10 10 10 10 9 9 9 9 9 9 8 8 8 7 6 6 6 7 7 6 7 7 6
16 16 17 16 16 16 15 14 14 13 12 12 11 12 12 13 12 12 11 11 11 12 11 11 11 11 11 11 11 11 10 9 9 9 9 9 9 9 9 9 8 8 7 7 7 7 7 7 7
17 17 18 17 17 17 16 16 15 14 14 13 12 12 12 13 12 12 11 11 11 12 12 12 12 11 11 12 12 11 10 10 9 9 10 10 10 9 10 10 10 10 9 8 8 9 8 8 9
18 17 18 18 19 19 19 17 15 15 15 14 14 14 14 13 13 13 12 12 12 13 14 14 12 13 13 12 11 11 10 10 9 10 11 11 11 10 10 10 9 10 10 10 10 10 10 10 10
19 18 18 19 20 20 19 17 16 16 15 15 14 15 15 14 13 14 13 14 13 13 14 15 14 13 14 13 12 11 11 11 10 11 11 11 11 11 10 10 10 9 9 10 11 10 10 10 10
20 20 19 19 21 20 20 18 16 16 16 15 15 16 15 15 15 15 15 15 15 15 15 15 14 14 14 14 13 12 12 12 11 10 11 11 11 11 11 11 10 9 10 10 11 11 11 11 11
20 20 20 20 22 22 21 20 18 18 18 17 18 18 17 17 16 16 16 16 16 16 16 15 15 14 15 14 13 13 13 13 11 11 11 11 12 12 11 11 10 10 10 11 11 11 11 11 11
21 21 20 20 21 22 22 22 20 20 20 20 20 20 19 19 18 18 18 18 17 17 16 15 15 15 16 15 14 14 13 12 12 11 11 12 12 12 11 11 11 11 11 11 11 11 11 12 12
21 21 21 21 21 22 22 23 22 21 21 21 20 20 20 20 19 19 19 19 19 18 18 17 16 16 16 16 15 14 13 13 13 13 13 13 12 13 12 12 13 13 12 12 12 12 12 12 12
21 21 21 21 21 23 24 23 22 22 21 21 20 20 21 21 21 21 20 20 20 19 19 18 17 17 17 16 15 15 14 14 15 14 13 13 13 14 14 13 13 14 13 13 13 13 13 12 12
21 20 21 22 22 23 24 25 22 22 21 21 20 20 21 21 21 21 21 21 20 20 19 18 18 18 18 17 16 16 15 15 15 14 14 14 14 14 14 14 14 14 14 14 14 14 13 13 13
21 21 22 22 23 23 24 25 22 22 21 20 20 20 21 21 22 22 21 20 20 19 19 19 19 18 18 18 16 17 17 16 15 14 14 14 14 14 14 14 16 16 16 15 15 14 14 14 14
22 22 23 24 24 25 24 25 23 22 21 20 20 21 21 21 21 21 20 20 20 19 19 19 19 19 18 18 17 17 17 16 15 15 15 15 15 15 15 15 16 17 17 16 16 16 15 14 14
23 23 24 25 25 25 24 25 25 23 22 22 21 21 21 20 20 20 20 20 20 19 19 19 20 19 18 18 18 18 18 17 17 16 16 16 16 16 16 16 16 17 16 16 17 17 16 15 14
24 24 25 27 27 26 25 26 25 24 24 23 23 22 21 20 20 20 21 21 20 20 19 19 20 20 19 19 18 19 20 19 18 18 17 17 17 16 16 16 16 17 17 16 16 17 16 16 16
24 25 26 28 28 28 27 27 26 25 24 24 24 23 23 22 22 21 21 21 20 19 19 19 20 20 20 19 19 20 21 20 19 19 18 18 18 18 17 16 16 17 18 18 17 17 17 18 18
24 25 26 27 28 28 27 26 25 25 25 25 24 24 23 22 22 22 22 21 20 20 20 20 20 20 21 21 21 21 21 21 20 20 19 19 19 19 18 18 18 18 19 19 19 19 19 18 19
24 25 26 27 28 28 27 26 24 23 24 24 24 24 24 23 22 22 21 21 21 21 21 21 20 20 21 22 22 22 21 21 20 20 20 20 19 19 19 19 19 20 20 20 20 20 20 20 20
25 26 26 27 28 28 28 26 24 24 24 25 25 24 24 24 23 23 22 22 22 22 21 21 21 21 22 22 22 22 22 22 21 21 21 20 20 20 20 20 21 21 20 21 21 21 21 21 21
Wind_Direction
212 212 223 230 230 205 117 29 11 10 10 7 5 5 4 2 359 356 359 360 2 0 359 360 1 360 1 5 9 12 13 11 10 8 10 10 8 5 9 11 15 16 18 18 36 47 81 108 149
220 223 230 237 240 235 237 325 0 3 5 6 5 3 356 354 354 351 351 355 358 357 358 0 5 4 6 7 7 10 9 8 6 3 5 7 7 7 9 13 15 16 20 22 20 17 70 166 161
227 228 233 241 250 247 265 299 349 359 1 4 0 359 356 352 350 348 347 349 351 350 353 356 1 6 9 9 7 7 3 4 3 0 1 4 5 6 5 6 8 13 11 13 17 5 349 204 221
234 234 238 248 248 251 267 295 326 345 352 357 356 354 357 354 349 347 345 348 350 349 351 355 1 9 6 3 1 360 358 358 358 357 357 356 357 360 359 353 355 2 359 359 11 13 304 185 169
237 239 238 245 252 261 272 288 307 330 337 351 353 354 354 351 344 342 342 346 349 350 351 354 1 6 360 358 357 353 352 352 352 353 351 348 349 352 354 350 347 348 348 349 1 8 297 197 162
237 240 239 244 249 257 271 280 300 323 333 344 349 348 348 347 344 343 341 341 346 349 349 350 354 360 357 356 355 352 349 347 345 344 343 343 347 347 347 345 338 330 327 327 335 329 297 140 167
236 238 242 247 251 257 266 279 289 312 323 336 344 346 345 342 342 341 339 339 342 343 345 346 347 352 354 352 350 349 346 341 339 339 339 337 339 340 339 337 330 318 312 307 307 313 241 225 231
235 236 238 245 251 253 261 277 287 304 318 328 335 342 340 336 334 337 335 334 334 340 341 341 343 345 348 346 344 344 344 342 337 335 335 334 331 330 327 324 319 312 303 295 292 284 258 234 241
234 235 238 243 247 252 263 275 285 299 310 320 327 330 329 328 328 329 331 328 333 338 338 337 338 341 342 339 337 337 337 339 333 328 327 327 325 322 319 314 310 301 295 287 278 275 272 270 261
232 233 236 241 248 256 263 270 282 292 305 315 317 320 320 322 323 324 324 327 332 334 334 331 329 330 332 331 330 329 330 330 328 323 319 317 318 315 314 310 299 290 285 279 270 264 264 264 269
231 232 237 241 247 258 266 271 280 290 299 306 308 310 312 319 319 321 317 325 329 326 329 328 324 324 325 326 326 325 324 322 320 318 314 312 309 306 302 302 292 284 275 271 271 264 258 260 262
233 233 237 243 248 257 264 269 276 284 293 295 302 304 307 314 318 324 321 318 325 321 318 322 316 313 314 318 319 317 316 314 314 314 310 308 305 299 297 290 286 277 267 270 272 267 255 254 254
236 237 237 242 248 255 262 267 276 281 287 290 295 299 303 307 313 319 321 318 319 318 313 312 309 308 307 308 312 310 309 308 307 308 307 304 302 295 294 286 278 269 266 268 268 266 256 254 251
240 238 240 242 247 252 258 265 272 277 284 288 289 293 295 299 305 311 317 316 316 315 314 315 306 307 306 304 303 305 304 301 299 301 301 303 305 302 296 284 275 268 263 263 264 263 256 255 255
244 244 243 247 250 252 258 262 270 275 282 285 284 287 291 296 302 306 309 312 309 310 312 313 308 305 305 300 298 297 296 297 300 300 299 299 301 300 296 286 276 267 264 262 260 261 258 257 257
249 250 247 249 251 253 258 260 266 272 275 280 281 284 289 291 296 300 301 303 304 306 309 309 308 305 305 300 294 293 294 294 297 299 299 298 297 296 290 283 277 266 264 261 258 258 259 256 255
251 252 250 248 251 254 258 261 265 270 271 273 276 280 285 287 288 292 294 295 297 301 302 303 306 304 304 303 295 293 290 292 294 295 299 299 297 293 285 278 273 269 268 263 256 256 259 257 255
250 251 249 249 253 255 258 262 265 269 272 273 277 279 283 287 287 288 290 293 295 297 298 298 302 304 302 299 293 294 293 290 291 293 297 299 296 292 283 275 271 266 265 263 257 255 256 256 256
249 250 251 252 254 255 258 261 263 267 271 273 275 278 280 286 286 287 289 293 294 297 297 297 299 298 297 298 296 295 295 291 292 299 300 296 294 292 282 271 267 261 261 262 260 254 254 256 253
251 251 252 254 255 256 258 260 263 267 270 271 273 275 279 281 281 283 286 289 291 293 293 290 290 291 292 293 292 290 289 287 288 294 296 294 290 287 279 270 265 260 260 259 259 256 257 256 253
254 255 255 255 255 259 261 263 262 264 266 269 274 279 281 281 281 281 285 288 289 288 289 288 287 288 287 287 283 282 286 284 286 289 292 292 289 288 283 272 262 259 260 259 258 257 260 253 252
254 256 256 256 257 258 263 267 264 264 267 272 275 278 281 282 281 282 285 286 287 287 286 286 283 285 283 285 282 279 282 283 287 286 288 290 288 286 282 272 262 259 260 259 259 261 258 256 253
255 255 257 260 261 262 264 267 267 265 268 271 273 276 280 279 278 279 281 283 283 283 283 284 281 282 283 284 282 281 282 283 284 285 286 287 286 283 281 273 263 260 259 259 260 261 258 256 252
255 255 258 262 264 266 267 268 269 270 271 271 273 275 277 277 276 277 279 280 282 281 281 284 282 281 281 283 283 279 279 280 281 282 284 285 283 282 278 271 266 262 262 258 257 259 258 256 252
256 258 261 263 265 269 269 268 271 272 271 271 273 275 277 276 275 276 278 280 283 283 282 282 280 279 279 282 282 278 280 278 277 277 279 281 281 280 277 271 266 263 260 259 256 256 256 254 250
258 261 264 267 268 270 270 269 272 272 271 272 274 275 277 277 277 277 278 279 281 282 281 280 277 274 276 278 278 277 280 278 277 277 277 277 278 277 274 270 265 261 260 258 258 256 254 253 249
260 261 265 268 270 271 271 273 273 271 271 273 276 276 276 278 278 277 278 280 279 278 278 276 275 274 273 273 276 278 281 279 278 276 276 275 276 276 273 268 268 263 258 257 256 254 254 249 246
261 262 265 267 271 271 273 276 275 273 274 275 278 278 276 276 277 275 276 279 278 278 277 274 273 273 272 272 274 277 278 277 276 274 274 274 274 274 271 267 266 263 258 255 253 252 253 251 249
261 262 264 268 270 273 275 274 276 277 275 275 277 278 277 274 275 275 276 278 278 278 279 278 275 272 273 273 274 275 275 275 273 275 277 275 273 271 268 265 264 264 259 256 253 251 252 252 252
262 263 265 268 269 270 272 274 274 276 277 277 277 275 274 273 272 273 273 274 274 275 275 276 275 273 275 276 274 274 274 274 274 274 275 274 271 269 267 265 264 263 262 259 255 252 252 252 254
Height
5886 5886 5887 5888 5889 5889 5888 5888 5888 5887 5887 5887 5886 5886 5885 5885 5885 5887 5884 5882 5881 5880 5879 5878 5878 5877 5876 5875 5874 5874 5874 5873 5873 5872 5872 5872 5871 5870 5869 5868 5868 5868 5868 5869 5869 5870 5870 5870 5871
5886 5886 5888 5888 5888 5888 5889 5888 5888 5888 5888 5887 5886 5886 5885 5884 5884 5884 5882 5882 5881 5880 5879 5878 5877 5876 5875 5875 5874 5874 5874 5873 5873 5872 5872 5872 5871 5870 5870 5869 5869 5869 5869 5869 5869 5870 5870 5870 5871
5885 5886 5888 5888 5888 5888 5889 5888 5888 5888 5887 5887 5886 5886 5885 5884 5884 5883 5883 5882 5881 5880 5880 5878 5877 5876 5875 5874 5874 5874 5873 5873 5873 5872 5872 5871 5871 5870 5870 5869 5869 5869 5869 5869 5869 5870 5870 5871 5871
5885 5886 5887 5888 5887 5888 5888 5888 5888 5888 5887 5887 5886 5886 5885 5885 5884 5883 5882 5882 5881 5880 5879 5878 5877 5876 5875 5874 5874 5873 5873 5872 5872 5872 5871 5871 5870 5870 5869 5869 5869 5869 5869 5869 5870 5870 5870 5871 5871
5884 5885 5886 5886 5886 5887 5887 5887 5887 5887 5887 5887 5886 5886 5885 5885 5884 5883 5882 5881 5881 5880 5879 5878 5877 5876 5875 5874 5873 5873 5873 5872 5872 5871 5871 5870 5870 5869 5869 5869 5869 5869 5869 5869 5870 5870 5870 5871 5871
5884 5884 5885 5885 5886 5886 5886 5886 5887 5887 5887 5887 5886 5886 5885 5884 5883 5883 5882 5881 5880 5879 5878 5877 5876 5875 5874 5874 5873 5873 5872 5871 5871 5871 5870 5870 5869 5869 5868 5868 5868 5868 5868 5869 5869 5870 5870 5871 5872
5883 5883 5884 5884 5885 5885 5886 5885 5886 5886 5886 5886 5886 5885 5885 5884 5883 5883 5882 5881 5880 5879 5878 5877 5876 5875 5874 5874 5873 5872 5872 5871 5870 5870 5870 5869 5868 5868 5868 5868 5868 5868 5868 5868 5869 5869 5870 5870 5871
5881 5883 5882 5883 5883 5884 5885 5884 5885 5885 5885 5886 5885 5885 5884 5884 5883 5882 5881 5880 5879 5878 5877 5876 5876 5875 5874 5873 5873 5872 5871 5870 5870 5869 5869 5868 5868 5867 5867 5867 5867 5867 5867 5868 5868 5869 5869 5870 5871
5879 5881 5881 5881 5882 5882 5883 5884 5884 5884 5884 5884 5884 5884 5883 5883 5882 5881 5880 5879 5878 5877 5876 5876 5875 5874 5873 5873 5872 5871 5870 5870 5869 5868 5868 5867 5867 5866 5866 5866 5866 5866 5866 5867 5867 5868 5868 5869 5870
5878 5879 5879 5880 5880 5881 5881 5882 5883 5883 5883 5883 5883 5882 5882 5881 5881 5880 5879 5878 5877 5876 5875 5875 5874 5873 5873 5872 5871 5870 5870 5869 5868 5867 5867 5866 5866 5865 5865 5865 5865 5865 5865 5866 5866 5867 5867 5868 5869
5875 5877 5877 5878 5878 5879 5879 5880 5881 5882 5882 5882 5881 5881 5880 5880 5879 5878 5877 5877 5876 5875 5874 5873 5873 5872 5872 5871 5870 5869 5868 5868 5867 5866 5865 5865 5864 5864 5864 5863 5863 5864 5864 5864 5865 5866 5866 5867 5868
5873 5874 5875 5876 5876 5877 5877 5878 5879 5880 5881 5880 5880 5879 5878 5878 5878 5877 5876 5875 5874 5874 5873 5872 5872 5871 5871 5870 5869 5868 5867 5866 5865 5865 5864 5863 5862 5862 5862 5862 5862 5862 5862 5863 5864 5864 5865 5866 5866
5871 5872 5873 5873 5874 5875 5876 5876 5877 5878 5878 5878 5877 5877 5876 5876 5876 5875 5874 5874 5873 5872 5871 5871 5870 5870 5869 5868 5867 5866 5865 5864 5863 5863 5862 5861 5861 5860 5860 5860 5860 5860 5860 5861 5862 5863 5863 5864 5865
5868 5869 5870 5871 5872 5872 5873 5874 5875 5875 5875 5875 5875 5875 5874 5874 5874 5873 5873 5871 5870 5870 5870 5869 5868 5867 5867 5866 5865 5864 5863 5862 5861 5861 5860 5859 5858 5858 5858 5858 5857 5857 5858 5859 5860 5861 5861 5862 5863
5865 5867 5868 5869 5869 5870 5871 5872 5872 5873 5872 5872 5872 5872 5871 5871 5871 5871 5870 5869 5868 5868 5867 5866 5865 5864 5864 5863 5862 5861 5860 5859 5859 5858 5858 5857 5856 5856 5855 5855 5855 5855 5856 5856 5857 5858 5859 5860 5860
5862 5864 5866 5866 5866 5867 5869 5869 5870 5869 5869 5869 5869 5869 5869 5869 5868 5868 5867 5866 5866 5865 5864 5863 5862 5861 5861 5860 5859 5858 5857 5856 5856 5856 5855 5854 5854 5853 5853 5852 5852 5852 5853 5854 5854 5855 5856 5857 5858
5859 5860 5862 5863 5863 5863 5864 5865 5866 5865 5865 5866 5866 5866 5866 5866 5865 5865 5864 5864 5863 5862 5861 5860 5859 5859 5858 5857 5856 5855 5855 5854 5853 5853 5852 5852 5851 5850 5850 5850 5850 5850 5850 5851 5852 5852 5853 5854 5855
5855 5856 5857 5858 5859 5859 5860 5861 5862 5862 5862 5862 5862 5862 5862 5862 5862 5861 5861 5860 5859 5859 5858 5857 5856 5855 5854 5854 5853 5852 5851 5851 5850 5850 5849 5849 5848 5847 5847 5847 5847 5847 5848 5848 5848 5849 5850 5850 5851
5851 5852 5853 5854 5854 5855 5855 5856 5858 5858 5858 5858 5858 5858 5858 5858 5858 5857 5857 5856 5856 5855 5854 5853 5853 5852 5851 5850 5849 5849 5848 5848 5847 5846 5846 5845 5845 5844 5844 5844 5844 5845 5845 5845 5845 5846 5847 5847 5848
5847 5848 5849 5850 5850 5850 5850 5851 5853 5853 5853 5854 5854 5854 5854 5854 5854 5853 5853 5852 5852 5851 5850 5849 5849 5848 5847 5847 5846 5846 5845 5844 5843 5843 5842 5842 5841 5841 5841 5841 5842 5842 5842 5842 5842 5843 5843 5844 5845
5843 5844 5845 5846 5846 5845 5846 5847 5848 5849 5849 5849 5849 5850 5849 5849 5849 5849 5849 5848 5847 5846 5846 5845 5844 5844 5843 5842 5841 5841 5841 5840 5839 5839 5838 5838 5837 5837 5837 5837 5838 5839 5839 5839 5839 5840 5840 5841 5842
5839 5840 5840 5840 5841 5841 5842 5842 5844 5844 5844 5845 5845 5845 5844 5844 5844 5844 5844 5843 5842 5842 5841 5840 5840 5840 5839 5838 5837 5837 5837 5837 5836 5836 5835 5834 5833 5833 5833 5833 5834 5835 5835 5835 5836 5836 5837 5838 5838
5835 5835 5835 5836 5836 5837 5837 5837 5839 5839 5840 5841 5840 5840 5839 5839 5838 5838 5838 5838 5838 5837 5836 5835 5835 5835 5834 5834 5833 5832 5832 5831 5831 5831 5831 5830 5830 5829 5829 5829 5830 5831 5831 5832 5832 5833 5834 5834 5835
5830 5831 5831 5831 5831 5832 5833 5833 5833 5835 5835 5836 5835 5835 5835 5834 5833 5833 5833 5833 5832 5831 5831 5830 5830 5830 5829 5829 5828 5828 5828 5827 5828 5827 5827 5826 5826 5826 5825 5825 5825 5826 5827 5828 5828 5829 5830 5831 5832
5826 5827 5827 5826 5826 5827 5828 5827 5829 5829 5829 5830 5830 5830 5829 5829 5828 5828 5828 5827 5827 5826 5826 5825 5825 5825 5825 5824 5824 5824 5824 5823 5823 5823 5823 5822 5822 5822 5821 5821 5821 5822 5822 5823 5824 5825 5826 5827 5828
5821 5822 5822 5822 5821 5822 5822 5821 5824 5823 5823 5824 5824 5825 5824 5824 5823 5823 5822 5822 5821 5820 5820 5820 5820 5820 5820 5820 5819 5819 5819 5819 5819 5819 5818 5818 5818 5817 5817 5817 5817 5817 5818 5819 5820 5821 5821 5822 5823
5815 5816 5817 5816 5815 5815 5816 5816 5817 5817 5817 5818 5818 5819 5819 5818 5818 5817 5817 5816 5815 5814 5814 5814 5815 5815 5815 5814 5814 5814 5813 5813 5813 5813 5813 5813 5813 5812 5812 5812 5813 5813 5813 5814 5815 5816 5817 5818 5819
5810 5811 5811 5810 5809 5809 5810 5810 5811 5811 5812 5812 5812 5812 5812 5812 5812 5811 5811 5810 5809 5809 5809 5808 5808 5809 5809 5808 5808 5808 5808 5807 5807 5807 5807 5807 5807 5807 5807 5807 5808 5808 5808 5809 5810 5811 5812 5813 5814
5804 5805 5804 5803 5803 5803 5802 5806 5805 5805 5805 5805 5805 5805 5806 5806 5806 5805 5805 5804 5804 5803 5803 5803 5802 5802 5802 5802 5802 5802 5802 5801 5801 5801 5801 5801 5801 5801 5802 5802 5802 5803 5803 5804 5805 5806 5807 5808 5809
5798 5798 5798 5798 5797 5796 5796 5800 5799 5799 5799 5798 5798 5799 5799 5799 5799 5799 5799 5799 5798 5798 5797 5797 5796 5796 5796 5795 5795 5795 5795 5795 5795 5795 5795 5796 5795 5795 5796 5796 5796 5797 5798 5798 5799 5800 5801 5802 5803